Weather in Nol'ka

Russia / Mari El Republic     56°35′17″N   47°54′09″E
temp.,
°C
wind,
m/s
gust,
m/s
humid.,
%
clouds,
%
prec.,
mm/h
press.,
hPa
HPBL,
m
4 march, thu
thu400:00−6sw4996100 0.5 1002459
03:00−4wsw41194100 1.0 1000587
06:00−3sw41095100 0.1 997502
09:00−2sw51196100 0.3 994748
12:00−1sw71397100 1.7 9911072
15:000w8139899 2.6 9891181
18:00−3w6148393 0.3 9911031
21:00−6wnw5138888 0.4 995651
5 march, fri
fri500:00−9w399597 0.0 997222
03:00−13wnw239779 0.0 100070
06:00−15wnw229720 0.0 100120
09:00−11wnw139310 0.0 1003176
12:00−6w359042 0.0 1004511
15:00−5wsw469066 0.1 1005783
18:00−7wsw3795100 0.1 1006240
21:00−11wsw359796 0.2 100997
6 march, sat
sat600:00−11w269796 0.1 1009155
03:00−13nnw229791 0.2 101140
06:00−15nnw2596100 0.3 1013128
09:00−15nw249370 0.3 1014245
12:00−12wnw249061 0.0 1015598
15:00−11wnw358881 0.1 1014814
18:00−14w2296100 0.1 101424
21:00−17w229788 0.1 101420
7 march, sun
sun700:00−19w229964 0.0 101320
03:00−19sw1210073 0.1 101220
06:00−21ssw2210095 0.0 101120
09:00−15s359795 0.1 1010214
12:00−10s479291 0.0 1007516
15:00−8s5108992 0.0 1004687
18:00−8s61294100 0.6 1001895
21:00−7s61294100 1.9 998912
8 march, mon
mon800:00−6s61295100 1.4 994872
03:00−8wsw61291100 2.9 993764
06:00−11wsw5138799 0.1 995538
09:00−10sw599491 0.1 996491
12:00−7sw5892100 0.3 998592
15:00−5ssw4787100 0.3 997674
18:00−8sse1289100 0.0 99621
21:00−12nnw119199 0.0 99721